Location: Newark
(42.5998°N, 13.2232°E)
Time: 04:32:43
(UTC+00:00)

N. Korean satellite - Visible Passes

Search period start: 23 January 2020 00:00
Search period end: 02 February 2020 00:00
Orbit: 454 x 507 km, 97.2° (Epoch: 22 January)

Date Brightness Start Highest point End Pass type
(mag) Time Alt. Az. Time Alt. Az. Time Alt. Az.
23 Jan 6.4 05:02:32 10° N 05:06:05 83° WNW 05:09:41 10° SSW visible
23 Jan 10.0 17:14:00 10° WSW 17:15:28 12° W 17:16:59 10° WNW visible
24 Jan 7.8 04:37:09 10° NNE 04:40:35 44° E 04:44:02 10° S visible
24 Jan 9.1 16:46:55 10° SSW 16:49:48 25° W 16:52:42 10° NW visible
25 Jan 9.2 04:12:11 10° NE 04:14:59 21° E 04:17:48 10° SE visible
25 Jan 7.7 05:45:24 10° NNW 05:48:18 24° WNW 05:51:14 10° SW visible
26 Jan 10.2 03:48:29 10° ENE 03:49:18 11° E 03:50:07 10° ESE visible
26 Jan 6.7 05:19:28 10° N 05:22:56 48° WNW 05:26:26 10° SSW visible
27 Jan 6.7 04:53:53 10° NNE 04:57:28 76° ESE 05:01:07 10° S visible
27 Jan 9.8 17:04:37 10° SW 17:06:45 16° W 17:08:55 10° NW visible
28 Jan 8.3 04:28:36 10° NNE 04:31:56 34° E 04:35:17 10° SSE visible
28 Jan 8.6 16:38:01 10° SSW 16:41:06 32° W 16:44:14 10° NNW visible
29 Jan 9.6 04:03:50 10° NE 04:06:18 17° E 04:08:47 10° SE visible
29 Jan 7.4 05:36:33 10° N 05:39:44 30° WNW 05:42:56 10° SW visible
30 Jan 6.5 05:10:45 10° N 05:14:19 63° WNW 05:17:56 10° SSW visible
31 Jan 7.2 04:45:15 10° NNE 04:48:50 58° E 04:52:27 10° S visible
31 Jan 9.6 16:55:26 10° SW 16:58:02 20° W 17:00:38 10° NW visible
01 Feb 8.8 04:20:06 10° NE 04:23:16 27° E 04:26:26 10° SSE visible
